Location: Newark
(48.8604°N, 2.3376°E)
Time: 23:34:21
(UTC+00:00)

XW-2C - Pass Details

Date: 12 December 2021
Orbit: 503 x 524 km, 97.5° (Epoch: 19 January)

Event Time Altitude Azimuth Distance (km) Brightness Sun altitude
Rises 17:06:05 0° 174° (S) 2,625 ? -11.2°
Reaches altitude 10° 17:08:11 10° 177° (S) 1,747 ? -11.5°
Maximum altitude 17:11:55 62° 259° (W) 594 ? -12.1°
Drops below altitude 10° 17:15:43 10° 341° (NNW) 1,773 ? -12.7°
Sets 17:17:51 0° 344° (NNW) 2,669 ? -13.0°
